COSMOS 1275 DEB

Satellite information

Favourite Embed

Satellite Type and Status

DEBRISIN ORBIT

Key statistics

Satellite COSMOS 1275 DEB at a glance.

Uptime

16212

Days in orbit

Revolutions

≈ 14.5

Per day

Orbit

LEO

Low Earth Orbit

Inclination

82.9

Latest

Satellite identification and parameters

Extended collection of information and parameters for COSMOS 1275 DEB.

Object identification

Identified? True

Debris? True

Object name: COSMOS 1275 DEB

International designator: 1981-053MB

Object number (NORAD): 18902

Object ID (CCSDS): 18902

Country: COMMONWEALTH OF INDEPENDENT STATES (CIS)

Current information (Y/N): Y

RCS size: SMALL

Orbital parameters

Period: 99.177 minutes

Inclination: 82.945 deg

SMA: 7097.41 km

Apoapsis: 728.401 km

Periapsis: 710.149 km

RAAN: 141.8712 deg

Eccentricy: 0.00128583

Argument of periapsis: 278.5918 deg

Mean anomaly: 81.3824 deg

Mean motion: 14.5195422 rev/day

Mean motion (dot): 0.00010816 rev/day2

B* drag term: 0.0026713939 1/REarth

Two-line elements (TLE)

Creation date: Oct. 22, 2025, 5:40 p.m.

Reference frame: TEME

Reference center: EARTH

Epoch: Oct. 22, 2025, 12:07 a.m. UTC

TLE line 0: 0 COSMOS 1275 DEB

TLE line 1: 1 18902U 81053MB 25295.00538240 .00010816 00000-0 26714-2 0 9990

TLE line 2: 2 18902 82.9450 141.8712 0012858 278.5918 81.3824 14.51954220630679

Live tracking on map

Real-time ground track for satellite COSMOS 1275 DEB.

In-orbit conjunctions

A list of the most updated potential collisions computed for object COSMOS 1275 DEB.

Target Orbit TCA Probability of collision Miss distance Type
SACI 1 SSO 2025-10-18 16:29:42 0.0005549986 103.0 (m) PAYLOAD
COSMOS 2251 DEB LEO 2025-08-24 05:43:24 0.0003048397 73.0 (m) DEBRIS
SEASAT 1 SSO 2024-12-05 09:13:12 0.0001034492 957.0 (m) PAYLOAD

Associated space launch

Navigation satellite providing location information for the Tsiklon-B navigation system

COSMOS 1275 DEB was lifted into orbit during the mission ‘Kosmos-3M | Parus 27’, on board a Kosmos-3M space rocket.

The launch took place on June 4, 1981, 3:41 p.m. from 132/2.

For more information about the launch, click the button.

Launch to space Kosmos-3M | Parus 27
Kosmos-3M | Parus 27

Agency: N/A

Status: Launch Successful

Launch date: June 4, 1981, 3:41 p.m. UTC

Rocket: Kosmos-3M

Launch pad: 132/2

Location: Plesetsk Cosmodrome, Russian Federation

...

Latest news about this satellite

There are no fresh news available about this satellite. Check back as we update our databases every day.


Newsletter sign-up

Weekly statistics, charts and insights to help you stay on top of the space industry.